NQ9F Weather Reports


time (UTC)temp
C
wind
direction
speed
KPH
gust
KPH
rain 1hr
cm
rain 24hr
cm
rain mn
cm
humidity
%
barometer
mb
20260509224224 30 139 12.9 19.3 0.00 0.03 0.03 51 1008.5
20260509223720 30 113 1.6 14.5 0.00 0.03 0.03 54 1008.5
20260509223217 30 147 14.5 17.7 0.00 0.03 0.03 52 1008.6
20260509222714 30 156 6.4 16.1 0.00 0.03 0.03 53 1008.5
20260509222209 30 151 11.3 11.3 0.00 0.03 0.03 53 1008.6
20260509221705 30 116 9.7 12.9 0.00 0.03 0.03 52 1008.5
20260509221201 30 126 11.3 17.7 0.00 0.03 0.03 51 1008.5
20260509220657 30 112 3.2 20.9 0.00 0.03 0.03 54 1008.3
20260509220148 30 180 6.4 16.1 0.00 0.03 0.03 49 1008.6
20260509215644 30 144 8.0 11.3 0.00 0.03 0.03 49 1008.3
20260509215141 30 110 4.8 11.3 0.00 0.03 0.03 49 1008.5
20260509214638 30 129 6.4 14.5 0.00 0.03 0.03 49 1008.6
20260509214135 30 331 1.6 3.2 0.00 0.03 0.03 51 1008.7
20260509213631 30 48 4.8 11.3 0.00 0.03 0.03 51 1008.7
20260509213127 30 83 8.0 16.1 0.00 0.03 0.03 51 1008.5
20260509212625 30 218 4.8 11.3 0.00 0.03 0.03 51 1008.7
20260509212122 30 146 8.0 14.5 0.00 0.03 0.03 50 1008.6
20260509211618 31 207 0.0 3.2 0.00 0.03 0.03 50 1009.0
20260509211114 30 146 4.8 17.7 0.00 0.03 0.03 49 1009.0
20260509210611 30 309 3.2 4.8 0.00 0.03 0.03 52 1009.1
20260509210108 30 141 6.4 11.3 0.00 0.03 0.03 52 1009.0
20260509205602 30 129 8.0 17.7 0.00 0.03 0.03 53 1009.3
20260509205057 30 146 4.8 9.7 0.00 0.03 0.03 53 1009.1
20260509204554 29 61 4.8 14.5 0.00 0.03 0.03 51 1009.4
20260509204051 30 136 8.0 9.7 0.00 0.03 0.03 50 1009.3
20260509203546 30 187 4.8 8.0 0.00 0.03 0.03 48 1009.5
20260509203045 30 206 3.2 9.7 0.00 0.03 0.03 47 1009.5
20260509202545 30 211 1.6 8.0 0.00 0.03 0.03 48 1009.5
20260509202041 30 136 8.0 11.3 0.00 0.03 0.03 48 1009.6
20260509201536 30 83 4.8 9.7 0.00 0.03 0.03 52 1009.5
20260509201033 30 115 8.0 11.3 0.00 0.03 0.03 48 1009.6
20260509200527 29 82 3.2 4.8 0.00 0.03 0.03 49 1009.7
20260509200025 29 63 6.4 12.9 0.00 0.03 0.03 49 1009.6
20260509195520 29 121 4.8 9.7 0.00 0.03 0.03 50 1009.8
20260509195020 28 133 6.4 14.5 0.00 0.03 0.03 49 1009.8
20260509194515 30 108 8.0 12.9 0.00 0.03 0.03 48 1009.9
20260509194013 29 178 0.0 9.7 0.00 0.03 0.03 51 1010.1
20260509193513 29 175 4.8 6.4 0.00 0.03 0.03 49 1010.1
20260509193010 29 115 3.2 6.4 0.00 0.03 0.03 53 1009.9
20260509192506 30 82 4.8 8.0 0.00 0.03 0.03 50 1010.3
20260509192001 28 209 3.2 6.4 0.00 0.03 0.03 51 1010.3
20260509191456 28 59 8.0 12.9 0.00 0.03 0.03 51 1010.3
20260509190952 28 239 3.2 8.0 0.00 0.03 0.03 52 1010.3
20260509190449 28 132 4.8 11.3 0.00 0.03 0.03 51 1010.3
20260509185947 29 72 11.3 12.9 0.00 0.03 0.03 52 1010.4
20260509185444 29 210 1.6 4.8 0.00 0.03 0.03 50 1010.4
20260509184940 28 295 3.2 4.8 0.00 0.03 0.03 51 1010.6
20260509184439 28 75 0.0 8.0 0.00 0.03 0.03 54 1010.6
20260509183935 29 49 8.0 9.7 0.00 0.03 0.03 51 1010.7
20260509183429 27 272 4.8 12.9 0.00 0.03 0.03 55 1010.7
20260509182926 28 2 8.0 11.3 0.00 0.03 0.03 54 1010.9
20260509182422 27 54 3.2 8.0 0.00 0.03 0.03 56 1010.7
20260509181920 27 9 8.0 14.5 0.00 0.03 0.03 57 1010.7
20260509181418 28 9 4.8 14.5 0.00 0.03 0.03 57 1011.0
20260509180914 28 8 6.4 9.7 0.00 0.03 0.03 59 1010.7
20260509180410 28 318 3.2 6.4 0.00 0.03 0.03 58 1010.8
20260509175907 27 351 6.4 20.9 0.00 0.03 0.03 59 1010.6
20260509175403 27 0 9.7 11.3 0.00 0.03 0.03 60 1010.8
20260509174859 27 1 3.2 6.4 0.00 0.03 0.03 60 1011.1
20260509174356 27 307 6.4 9.7 0.00 0.03 0.03 60 1011.1
20260509173851 26 283 9.7 14.5 0.00 0.03 0.03 58 1011.1
20260509173341 27 290 11.3 12.9 0.00 0.03 0.03 59 1011.0
20260509172838 26 333 4.8 9.7 0.00 0.03 0.03 61 1011.3
20260509172334 26 312 11.3 17.7 0.00 0.03 0.03 60 1011.0
20260509171830 26 335 6.4 16.1 0.00 0.03 0.03 60 1011.1
20260509171326 26 277 6.4 12.9 0.00 0.03 0.03 62 1011.2
20260509170823 26 281 8.0 11.3 0.00 0.03 0.03 62 1011.4
20260509170319 26 293 3.2 11.3 0.00 0.03 0.03 64 1011.2
20260509165818 25 288 11.3 14.5 0.00 0.03 0.03 63 1011.3
20260509165313 25 330 9.7 20.9 0.00 0.03 0.03 62 1011.3
20260509164809 25 313 14.5 14.5 0.00 0.03 0.03 63 1011.3
20260509164300 26 341 8.0 11.3 0.00 0.03 0.03 63 1011.3
20260509163756 25 299 8.0 14.5 0.00 0.03 0.03 65 1011.4
20260509163253 25 324 8.0 22.5 0.00 0.03 0.03 64 1011.7
20260509162751 25 292 17.7 22.5 0.00 0.03 0.03 65 1011.4
20260509162245 25 305 12.9 22.5 0.00 0.03 0.03 67 1011.4
20260509161742 25 315 8.0 17.7 0.00 0.03 0.03 65 1011.7
20260509161238 25 292 12.9 22.5 0.00 0.03 0.03 65 1011.7
20260509160733 25 296 16.1 24.1 0.00 0.03 0.03 66 1011.8
20260509160230 24 273 8.0 16.1 0.00 0.03 0.03 66 1011.5
20260509155724 24 317 12.9 20.9 0.00 0.03 0.03 67 1011.5
20260509155222 23 328 11.3 24.1 0.00 0.03 0.03 67 1011.5
20260509154718 23 314 20.9 22.5 0.00 0.03 0.03 70 1011.5
20260509154215 23 318 19.3 24.1 0.00 0.03 0.03 70 1011.5
20260509153712 23 327 16.1 22.5 0.00 0.03 0.03 70 1011.6
20260509153208 23 315 8.0 19.3 0.00 0.03 0.03 72 1011.6
20260509152704 23 341 11.3 14.5 0.00 0.03 0.03 70 1011.6
20260509152201 22 309 8.0 19.3 0.00 0.03 0.03 70 1011.7
20260509151658 22 335 6.4 17.7 0.00 0.03 0.03 71 1011.8
20260509151155 22 323 16.1 19.3 0.00 0.03 0.03 70 1011.7
20260509150653 22 311 14.5 17.7 0.00 0.03 0.03 72 1011.5
20260509150151 22 336 11.3 20.9 0.00 0.03 0.03 70 1011.4
20260509145647 22 346 12.9 14.5 0.00 0.03 0.03 70 1011.6
20260509145142 22 308 14.5 19.3 0.00 0.03 0.03 71 1011.5
20260509144639 22 317 19.3 22.5 0.00 0.03 0.03 70 1011.9
20260509144136 22 325 11.3 17.7 0.00 0.03 0.03 72 1011.6
20260509143633 22 325 4.8 17.7 0.00 0.03 0.03 73 1011.8
20260509143131 22 324 8.0 19.3 0.00 0.03 0.03 74 1011.6
20260509142626 21 326 6.4 14.5 0.00 0.03 0.03 77 1011.7
20260509142123 21 303 14.5 16.1 0.00 0.03 0.03 77 1011.6
20260509141619 21 336 4.8 19.3 0.00 0.03 0.03 77 1011.6
20260509141115 21 305 11.3 14.5 0.00 0.03 0.03 76 1011.7
20260509140612 21 294 8.0 16.1 0.00 0.03 0.03 77 1011.9
20260509140110 21 290 6.4 11.3 0.00 0.03 0.03 80 1011.8
20260509135607 20 298 9.7 12.9 0.00 0.03 0.03 83 1011.8
20260509135105 20 251 8.0 8.0 0.00 0.03 0.03 84 1011.8
20260509134601 20 277 3.2 6.4 0.00 0.03 0.03 86 1012.2
20260509134059 20 276 6.4 9.7 0.00 0.03 0.03 85 1012.1
20260509133556 20 255 6.4 12.9 0.00 0.03 0.03 86 1012.1
20260509133053 20 233 4.8 8.0 0.00 0.03 0.03 86 1011.9
20260509132552 19 216 4.8 9.7 0.00 0.03 0.03 87 1011.8
20260509132050 19 271 3.2 8.0 0.00 0.03 0.03 87 1011.6
20260509131545 18 273 4.8 9.7 0.00 0.03 0.03 88 1011.9
20260509131042 18 287 4.8 9.7 0.00 0.03 0.03 89 1011.9
20260509130538 18 307 6.4 6.4 0.00 0.03 0.03 89 1011.8
20260509130035 18 359 3.2 11.3 0.00 0.03 0.03 90 1011.6
20260509125531 18 334 4.8 8.0 0.00 0.03 0.03 89 1011.7
20260509125028 18 327 4.8 8.0 0.00 0.03 0.03 90 1011.7
20260509124519 18 321 4.8 8.0 0.00 0.03 0.03 89 1011.6
20260509124016 18 326 3.2 6.4 0.00 0.03 0.03 88 1011.8
20260509123514 17 326 3.2 6.4 0.00 0.03 0.03 89 1011.9
20260509123010 17 268 1.6 6.4 0.00 0.03 0.03 90 1011.5
20260509122507 17 282 4.8 8.0 0.00 0.03 0.03 90 1011.7
20260509122004 17 274 4.8 4.8 0.00 0.03 0.03 90 1011.6
20260509121500 17 307 3.2 4.8 0.00 0.03 0.03 90 1011.5
20260509120958 17 312 1.6 3.2 0.00 0.03 0.03 90 1011.5
20260509120456 17 315 3.2 4.8 0.00 0.03 0.03 90 1011.3
20260509115954 17 338 0.0 6.4 0.00 0.03 0.03 90 1011.3
20260509115451 17 279 1.6 3.2 0.00 0.03 0.03 90 1011.2
20260509114948 17 322 4.8 6.4 0.00 0.03 0.03 90 1010.9
20260509114446 17 344 3.2 8.0 0.00 0.03 0.03 90 1011.0
20260509113946 17 355 3.2 6.4 0.00 0.03 0.03 90 1010.9
20260509113442 17 8 3.2 8.0 0.00 0.03 0.03 90 1010.7
20260509112939 17 333 4.8 11.3 0.00 0.03 0.03 90 1010.6
20260509112437 17 322 4.8 9.7 0.00 0.03 0.03 90 1010.5
20260509111933 17 339 3.2 8.0 0.00 0.03 0.03 90 1010.4
20260509111430 17 310 4.8 8.0 0.00 0.03 0.03 90 1010.6
20260509110922 17 321 4.8 8.0 0.00 0.03 0.03 90 1010.3
20260509110418 17 301 6.4 9.7 0.00 0.03 0.03 89 1010.3
20260509105916 17 275 6.4 8.0 0.00 0.03 0.03 89 1010.4
20260509105415 18 314 8.0 9.7 0.00 0.03 0.03 89 1010.3
20260509104911 18 332 6.4 8.0 0.00 0.03 0.03 88 1010.2
20260509104408 18 347 4.8 8.0 0.00 0.03 0.03 87 1010.4
20260509103906 18 269 0.0 3.2 0.00 0.03 0.03 86 1010.6
20260509103402 18 280 0.0 3.2 0.00 0.03 0.03 87 1010.6
20260509102901 18 353 3.2 9.7 0.00 0.03 0.03 85 1010.8
20260509102358 18 305 3.2 9.7 0.00 0.03 0.03 84 1010.5
20260509101854 19 245 6.4 12.9 0.00 0.03 0.03 84 1010.7
20260509101350 19 21 0.0 6.4 0.00 0.03 0.03 83 1010.5
20260509100848 19 232 3.2 12.9 0.00 0.03 0.03 83 1010.8
20260509100344 20 238 11.3 12.9 0.00 0.03 0.03 82 1010.9
20260509095841 20 260 3.2 11.3 0.00 0.03 0.03 81 1010.6
20260509095339 20 194 12.9 25.7 0.00 0.03 0.03 82 1010.9
20260509094836 19 208 14.5 17.7 0.00 0.03 0.03 84 1010.4
20260509094332 20 195 4.8 4.8 0.00 0.03 0.03 81 1009.9
20260509093830 20 147 0.0 3.2 0.00 0.03 0.03 81 1009.8
20260509093327 20 131 1.6 3.2 0.00 0.03 0.03 81 1009.6
20260509092826 20 94 3.2 4.8 0.00 0.03 0.03 81 1009.4
20260509092323 20 24 6.4 9.7 0.00 0.03 0.03 80 1009.1
20260509091821 20 1 8.0 11.3 0.00 0.03 0.03 79 1009.1
20260509091318 20 8 8.0 11.3 0.00 0.03 0.03 78 1008.9
20260509090815 20 38 11.3 19.3 0.00 0.03 0.03 76 1008.3
20260509090312 21 49 11.3 14.5 0.00 0.03 0.03 75 1008.2
20260509085809 21 22 9.7 30.6 0.00 0.03 0.03 72 1008.0
20260509085307 21 27 8.0 25.7 0.00 0.03 0.03 66 1007.6
20260509084803 22 27 11.3 22.5 0.00 0.03 0.03 61 1007.5
20260509084300 21 1 33.8 33.8 0.00 0.03 0.03 61 1007.5
20260509083758 23 17 12.9 24.1 0.00 0.03 0.03 55 1007.1
20260509083254 23 189 8.0 14.5 0.00 0.03 0.03 47 1006.3
20260509082751 24 205 12.9 22.5 0.00 0.03 0.03 47 1006.5
20260509082247 23 183 6.4 25.7 0.00 0.03 0.03 50 1006.5
20260509081744 23 215 14.5 24.1 0.00 0.03 0.03 52 1006.7
20260509081242 22 207 11.3 14.5 0.00 0.03 0.03 58 1006.8
20260509080740 22 181 6.4 11.3 0.00 0.03 0.03 59 1006.9
20260509080237 22 191 4.8 11.3 0.00 0.03 0.03 57 1007.2
20260509075736 22 201 8.0 9.7 0.00 0.03 0.03 60 1007.3
20260509075233 21 201 14.5 16.1 0.00 0.03 0.03 62 1007.8
20260509074729 22 191 9.7 16.1 0.00 0.03 0.03 58 1008.2
20260509074227 22 198 9.7 16.1 0.00 0.03 0.03 62 1008.7
20260509073723 23 127 9.7 17.7 0.00 0.03 0.03 54 1008.8
20260509073220 20 146 9.7 12.9 0.00 0.03 0.03 73 1009.4
20260509072716 22 188 6.4 8.0 0.00 0.03 0.03 65 1009.7
20260509072213 22 54 4.8 16.1 0.00 0.03 0.03 65 1009.8
20260509071710 21 93 11.3 32.2 0.05 0.03 0.03 71 1010.0
20260509071207 21 155 6.4 12.9 0.05 0.03 0.03 75 1010.2
20260509070704 20 165 8.0 14.5 0.00 0.00 0.00 76 1010.4
20260509070200 20 191 8.0 16.1 0.05 0.00 0.00 81 1010.8
20260509065656 20 186 6.4 19.3 0.05 0.00 0.00 85 1011.0
20260509065153 20 195 12.9 20.9 0.00 0.00 0.00 88 1011.0
20260509064650 20 199 22.5 33.8 0.00 0.00 0.00 90 1011.3
20260509064147 20 181 8.0 22.5 0.00 0.00 0.00 93 1011.1
20260509063644 20 202 6.4 20.9 0.00 0.00 0.00 94 1011.2
20260509063140 20 199 8.0 22.5 0.00 0.00 0.00 94 1011.5
20260509062638 20 190 11.3 16.1 0.00 0.00 0.00 95 1011.7
20260509062135 20 207 14.5 24.1 0.00 0.00 0.00 96 1011.8
20260509061631 20 245 12.9 22.5 0.00 0.00 0.00 97 1012.5
20260509061129 20 232 14.5 16.1 0.00 0.00 0.00 97 1012.4
20260509060627 20 225 6.4 14.5 0.00 0.00 0.00 97 1012.2
20260509060122 19 263 6.4 9.7 0.00 0.00 0.00 97 1012.6
20260509055618 19 280 4.8 12.9 0.00 0.00 0.00 97 1013.0
20260509055114 19 286 3.2 11.3 0.00 0.00 0.00 97 1012.9
20260509054611 19 300 8.0 8.0 0.00 0.00 0.00 97 1012.8
20260509054109 19 222 8.0 12.9 0.00 0.00 0.00 97 1012.4
20260509053607 20 251 8.0 9.7 0.00 0.00 0.00 96 1012.3
20260509053104 20 202 0.0 3.2 0.00 0.00 0.00 96 1012.1
20260509052602 20 180 3.2 8.0 0.00 0.00 0.00 96 1011.8
20260509052059 20 174 4.8 6.4 0.00 0.00 0.00 96 1012.1
20260509051557 20 310 0.0 4.8 0.00 0.00 0.00 95 1012.3
20260509051054 20 349 0.0 4.8 0.00 0.00 0.00 95 1012.3
20260509050550 20 21 8.0 24.1 0.00 0.00 0.00 96 1012.8
20260509050047 20 23 6.4 20.9 0.00 0.00 0.00 96 1012.9
20260509045545 19 11 12.9 17.7 0.00 0.38 0.38 96 1012.5
20260509045041 20 12 8.0 16.1 0.00 0.38 0.38 96 1012.3
20260509044539 20 357 8.0 12.9 0.00 0.38 0.38 94 1012.1
20260509044036 20 22 3.2 6.4 0.00 0.38 0.38 94 1011.6
20260509043532 20 144 12.9 12.9 0.00 0.38 0.38 94 1011.2
20260509043028 20 158 12.9 16.1 0.00 0.38 0.38 94 1010.7
20260509042524 20 161 8.0 14.5 0.00 0.38 0.38 94 1010.8
20260509042021 20 149 14.5 19.3 0.00 0.38 0.38 94 1010.7
20260509041517 20 155 17.7 24.1 0.00 0.38 0.38 94 1010.5
20260509041014 20 157 8.0 19.3 0.00 0.38 0.38 94 1010.0
20260509040513 20 165 6.4 17.7 0.00 0.38 0.38 94 1010.3
20260509040005 20 139 6.4 12.9 0.00 0.38 0.38 94 1010.5
20260509035501 20 137 4.8 12.9 0.00 0.38 0.38 93 1010.5
20260509034957 20 140 8.0 14.5 0.00 0.38 0.38 93 1010.3
20260509034456 20 137 8.0 14.5 0.00 0.38 0.38 93 1010.4
20260509033952 20 108 4.8 19.3 0.00 0.38 0.38 93 1010.5
20260509033449 20 117 8.0 16.1 0.00 0.38 0.38 94 1010.4
20260509032946 20 82 9.7 16.1 0.00 0.38 0.38 93 1010.4
20260509032443 20 79 11.3 16.1 0.00 0.38 0.38 93 1010.3
20260509031941 20 121 11.3 14.5 0.00 0.38 0.38 92 1010.0
20260509031438 20 117 12.9 16.1 0.00 0.38 0.38 92 1009.9
20260509030935 20 124 4.8 17.7 0.00 0.38 0.38 91 1009.8
20260509030433 21 139 8.0 19.3 0.00 0.38 0.38 91 1009.3
20260509025930 21 138 12.9 25.7 0.00 0.38 0.38 91 1009.3
20260509025426 21 150 11.3 19.3 0.00 0.38 0.38 91 1009.3
20260509024921 21 148 11.3 17.7 0.00 0.38 0.38 91 1009.0
20260509024417 21 157 8.0 14.5 0.00 0.38 0.38 90 1009.0
20260509023914 21 157 12.9 16.1 0.00 0.38 0.38 90 1009.1
20260509023412 21 152 17.7 22.5 0.00 0.38 0.38 90 1008.7
20260509022908 21 162 14.5 27.4 0.00 0.38 0.38 90 1008.2
20260509022405 21 154 22.5 29.0 0.00 0.38 0.38 90 1008.1
20260509021903 21 153 17.7 22.5 0.00 0.38 0.38 89 1008.0
20260509021400 21 166 16.1 24.1 0.00 0.38 0.38 89 1007.9
20260509020857 21 157 17.7 29.0 0.00 0.38 0.38 89 1008.1
20260509020355 21 168 14.5 27.4 0.00 0.38 0.38 89 1007.6
20260509015852 21 167 9.7 24.1 0.00 0.38 0.38 88 1007.5
20260509015350 21 150 9.7 25.7 0.00 0.38 0.38 88 1007.7
20260509014847 21 158 14.5 25.7 0.00 0.38 0.38 88 1008.0
20260509014344 21 178 14.5 22.5 0.00 0.38 0.38 88 1008.2
20260509013840 21 148 11.3 20.9 0.00 0.38 0.38 88 1008.3
20260509013337 21 146 16.1 20.9 0.00 0.38 0.38 87 1008.3
20260509012832 21 151 11.3 16.1 0.00 0.38 0.38 87 1008.7
20260509012329 21 142 17.7 20.9 0.00 0.38 0.38 86 1008.7
20260509011827 21 167 14.5 14.5 0.00 0.38 0.38 87 1008.7
20260509011324 22 151 9.7 14.5 0.00 0.38 0.38 86 1008.9
20260509010822 22 151 11.3 14.5 0.00 0.38 0.38 85 1008.9
20260509010319 22 146 8.0 14.5 0.00 0.38 0.38 85 1008.6
20260509005816 22 144 4.8 14.5 0.00 0.38 0.38 85 1008.2
20260509005314 22 153 14.5 16.1 0.00 0.38 0.38 84 1008.6
20260509004813 22 137 12.9 16.1 0.00 0.38 0.38 83 1008.7
20260509004305 22 161 1.6 14.5 0.00 0.38 0.38 83 1008.5
20260509003803 22 147 9.7 16.1 0.00 0.38 0.38 83 1008.7
20260509003301 22 177 9.7 14.5 0.00 0.38 0.38 83 1008.3
20260509002757 22 157 14.5 19.3 0.00 0.38 0.38 82 1008.2
20260509002255 22 163 14.5 20.9 0.00 0.38 0.38 82 1008.1
20260509001752 23 156 8.0 14.5 0.00 0.38 0.38 82 1008.0
20260509001248 23 151 6.4 11.3 0.00 0.38 0.38 82 1008.1
20260509000746 23 145 17.7 22.5 0.00 0.38 0.38 81 1008.1
20260509000243 22 166 11.3 19.3 0.00 0.38 0.38 82 1008.1
20260508235739 23 156 6.4 20.9 0.00 0.38 0.38 81 1008.2
20260508235230 23 191 9.7 20.9 0.00 0.38 0.38 81 1008.1
20260508234727 23 179 9.7 22.5 0.00 0.38 0.38 80 1008.2
20260508234224 23 181 16.1 19.3 0.00 0.38 0.38 80 1008.6
20260508233718 23 176 9.7 19.3 0.00 0.38 0.38 80 1008.5
20260508233216 23 177 11.3 19.3 0.00 0.38 0.38 79 1008.5
20260508232713 22 191 6.4 19.3 0.00 0.38 0.38 80 1008.7
20260508232209 23 166 19.3 19.3 0.00 0.38 0.38 78 1008.8
20260508231707 23 161 19.3 19.3 0.00 0.38 0.38 78 1008.8
20260508231203 23 173 8.0 20.9 0.00 0.38 0.38 78 1008.8
20260508230655 23 147 14.5 19.3 0.00 0.38 0.38 78 1008.9
20260508230151 23 152 12.9 25.7 0.00 0.38 0.38 78 1008.8
20260508225649 23 188 9.7 20.9 0.00 0.38 0.38 78 1008.9
20260508225145 22 144 14.5 24.1 0.00 0.38 0.38 79 1008.8
20260508224643 22 151 9.7 16.1 0.00 0.38 0.38 79 1008.8